[Iaude] MPEC A109: 2024 AP2 [a=0.96,e=0.14,i=8.3,H=24.3]
    mpec at marsden.cfa.harvard.edu 
    mpec at marsden.cfa.harvard.edu
       
    Wed Jan 10 09:28:23 EST 2024
    
    
  
M.P.E.C. 2024-A109                             Issued 2024 January 10, 14:26 UT
     The Minor Planet Electronic Circulars contain information on unusual
         minor planets, routine data on comets and natural satellites,
         and occasional editorial announcements.  They are published
    on behalf of Division F of the International Astronomical Union by the
          Minor Planet Center, Smithsonian Astrophysical Observatory,
                          Cambridge, MA 02138, U.S.A.
			  
             Prepared using the Tamkin Foundation Computer Network
                              MPC at CFA.HARVARD.EDU
            URL https://www.minorplanetcenter.net/    ISSN 1523-6714
                                    2024 AP2                                    
Observations:
     K24A02P* C2024 01 09.22481906 54 16.894-29 33 04.03         19.05oVEA109W68
     K24A02P  C2024 01 09.22842206 54 14.890-29 33 05.83         19.05oVEA109W68
     K24A02P  C2024 01 09.23480206 54 11.326-29 33 08.24         19.04oVEA109W68
     K24A02P  C2024 01 09.24480406 54 05.647-29 33 12.56         18.84oVEA109W68
     K24A02P  C2024 01 09.33576306 53 15.70 -29 33 25.2                WEA109X09
     K24A02P  C2024 01 09.34190006 53 12.43 -29 33 24.6                WEA109X09
     K24A02P 0B2024 01 09.93479 06 48 30.77 -29 40 04.2          19.0 VZEA109M49
     K24A02P 0B2024 01 09.93653 06 48 29.65 -29 40 04.7          18.4 VZEA109M49
     K24A02P 0B2024 01 09.93825 06 48 28.51 -29 40 05.8          19.1 VZEA109M49
     K24A02P bC2024 01 09.95247206 48 20.55 -29 44 01.5          18.3 GVEA109L01
     K24A02P bC2024 01 09.95509306 48 18.80 -29 44 03.0          18.5 GVEA109L01
     K24A02P IC2024 01 09.95772106 48 17.17 -29 44 04.9          18.6 GVEA109L01
     K24A02P |C2024 01 10.07114006 47 28.740-29 40 12.90         18.6 GVEA109807
     K24A02P |C2024 01 10.07606006 47 25.620-29 40 16.90         18.7 GVEA109807
     K24A02P |C2024 01 10.08098006 47 22.490-29 40 21.80         19.1 GVEA109807
     K24A02P KB2024 01 10.58077 06 42 27.74 -29 48 41.6          18.3 VqEA109Q06
     K24A02P KB2024 01 10.58323 06 42 26.05 -29 48 44.6          18.3 VqEA109Q06
     K24A02P KB2024 01 10.58534 06 42 24.50 -29 48 44.4          18.4 VqEA109Q06
Observer details:
807 Cerro Tololo Observatory, La Serena.  Observers T. Linder, R. Holmes, L.
    Horn.  0.61-m f/11 Ritchey-Chretien + CCD.
L01 Visnjan Observatory, Tican.  Observers K. Korlevic, L. Poropat.  Measurer
    K. Korlevic.  1.0-m f/2.9 reflector + CCD.
M49 IAS Remote Observatory, Hakos.  Observers D. Husar, M. Junius.  Measurer
    D. Husar.  0.25-m f/4.5 reflector + CMO.
Q06 Tarui Observatory, Tarui.  Observer H. Watanabe.  0.35-m f/1.9 Schmidt-
    Cassegrain + CMO.
W68 ATLAS Chile, Rio Hurtado.  Observers L. Denneau, R. Siverd, J. Tonry, H.
    Weiland.  Measurers L. Denneau, N. Erasmus, A. Fitzsimmons, A. Lawrence,
    J. Robinson, R. Siverd, J. Tonry, H. Weiland.  0.5-m Reflector + CCD.
X09 Deep Random Survey, Rio Hurtado.  Observers A. Schnabel, D. Ruhela.
    Measurer S. Deen.  0.43-m reflector + CMOS.
Orbital elements:
2024 AP2                                                 Earth MOID = 0.0042 AU
Epoch 2023 Sept. 13.0 TT = JDT 2460200.5                MPC                     
M 134.91919              (2000.0)            P               Q                  
n   1.04464309     Peri.  105.32966     -0.70557117     +0.69745145             
a   0.9619609      Node   119.08478     -0.69269860     -0.64148206             
e   0.1381840      Incl.    8.25159     -0.14945892     -0.31947181             
P   0.94           H   24.35          G   0.15           U   6                  
Residuals in seconds of arc
240109 W68  0.3-  0.6+    240109 M49  0.1-  0.1-    240110 807  0.1-  0.1-
240109 W68  0.1+  0.2+    240109 M49  0.0   0.3+    240110 807  0.1-  0.5+
240109 W68  0.4+  0.2+    240109 M49  0.3-  0.0     240110 807  0.1-  0.1+
240109 W68  0.3-  0.7-    240109 L01  1.3+  0.2+    240110 Q06  0.4-  1.1+
240109 X09  0.1+  0.3+    240109 L01  0.2-  0.1-    240110 Q06  0.6+  0.7-
240109 X09  0.0   0.9+    240109 L01  0.1-  0.7-    240110 Q06  0.1+  0.6+
Ephemeris:
2024 AP2                 a,e,i = 0.96, 0.14, 8                   q = 0.8290
Date    TT    R. A. (2000) Decl.     Delta      r    Elong.  Phase     V
2023 12 11    07 44 21.9 -22 45 24   0.1344  1.0599   120.8    53.0    22.1
...
2023 12 26    07 38 47.1 -26 34 06   0.08270 1.0344   126.2    50.1    20.9
...
2024 01 03    07 24 07.8 -28 20 04   0.05559 1.0186   128.1    49.4    20.0
...
2024 01 09    06 56 03.0 -29 30 59   0.03570 1.0058   128.0    50.4    19.0
2024 01 10    06 47 56.4 -29 40 05   0.03247 1.0036   127.6    50.9    18.8
2024 01 11    06 38 02.3 -29 46 51   0.02927 1.0013   127.0    51.7    18.6
...
2024 01 17    04 01 02.7 -24 15 05   0.01251 0.9877   107.9    71.4    17.3
...
2024 01 25    22 01 02.1 +19 39 35   0.02248 0.9687    45.3   133.7    22.1
...
2024 02 09    20 42 05.7 +23 58 36   0.07260 0.9325    40.5   136.6    24.9
A. U. Tomatic                (C) Copyright 2024 MPC           M.P.E.C. 2024-A109
    
    
More information about the Iaude
mailing list